SCP
-0 -0 -0 -0 0 0 0 0 0 0 0 0 0 0 0 0 0 0 0 0 0 0 0 0 0 0 0 0 0 0 0 0 0 0 0 0 0 0 0 0 0 0 0
0 0 -0 -0 0 0 0 0 0 0 0 0 0 0 0 0 0 0 0 0 0 0 0 0 0 0 0 0 0 0 0 0 0 0 0 0 0 0 0 0 0 0 0
0 0 0 0 0 0 0 0 0 0 0 0 0 0 0 0 0 0 0 0 0 0 0 0 0 0 0 0 0 0 0 0 0 0 0 0 0 0 0 0 0 0 0
0 0 0 0 0 0 0 0 0 0 0 0 0 0 0 0 0 0 0 0 0 0 0 0 0 0 0 0 0 0 0 0 0 0 0 0 0 0 0 0 0 0 0
0 0 0 0 0 0 0 0 0 0 0 0 0 0 0 0 0 0 0 0 0 0 0 0 0 0 0 0 0 0 0 0 0 0 0 0 0 0 0 0 0 0 0
0 0 0 0 0 0 0 0 0 0 0 0 0 0 0 0 0 0 0 0 0 0 0 0 0 0 0 0 0 0 0 0 0 0 0 0 0 0 0 0 0 0 0
0 0 0 0 0 0 0 0 0 0 0 0 0 0 0 -0 -0 -0 -0 -0 0 0 0 0 0 0 0 0 0 0 0 0 0 0 0 0 0 0 0 0 0 0 0
0 0 0 0 0 0 0 0 0 0 0 0 0 0 0 -0 -0 -0 0 -0 -0 0 0 0 0 0 0 0 0 0 0 0 0 0 0 0 0 0 0 0 0 0 0
0 0 0 0 0 0 0 0 0 0 0 0 0 0 0 -0 -0 0 0 0 0 -0 0 0 0 0 0 0 0 0 0 0 0 0 0 0 0 0 0 0 0 0 0
0 0 0 0 0 0 0 0 0 0 0 0 0 0 0 0 0 0 0 0 0 0 0 0 0 0 0 0 0 0 0 0 0 0 0 0 0 0 0 0 0 0 0
0 0 0 0 0 0 0 0 0 0 0 0 0 0 0 0 0 0 0 0 0 0 -0 0 0 0 0 0 0 0 0 0 0 0 0 0 0 0 0 0 0 0 0
0 0 0 0 0 0 0 0 0 0 0 0 0 0 0 0 0 0 0 0 0 0 -0 -0 -0 0 0 0 0 0 0 0 0 0 0 0 0 0 0 0 0 0 0
0 0 0 0 0 0 0 0 0 0 0 0 0 0 0 0 0 0 0 0 0 0 -0 -0 -0 -0 0 0 0 0 0 0 0 0 0 0 0 0 0 0 0 0 0
0 -0 -0 0 0 0 0 0 0 0 0 0 0 0 0 0 0 0 0 0 0 0 -0 -0 -0 -0 0 0 0 0 0 0 0 0 0 0 0 0 0 0 0 0 0
0 -0 -0 -0 0 0 0 0 0 0 0 0 0 0 0 0 0 0 0 0 0 0 0 -0 -0 0 0 0 0 0 0 0 0 0 0 0 0 0 0 0 0 0 0
0 0 -0 -0 0 0 0 0 0 0 0 0 0 0 0 0 0 0 0 0 0 0 0 0 0 0 0 0 0 0 0 0 0 0 0 0 0 0 0 0 0 0 0
0 0 -0 -0 0 0 0 0 0 0 0 0 0 0 0 0 0 0 0 0 0 0 0 0 0 0 0 0 0 0 0 0 0 0 0 0 0 0 0 0 0 0 0
-0 -0 0 0 0 0 0 0 0 0 0 0 0 0 0 0 0 0 0 0 0 0 0 0 0 0 0 0 0 0 0 0 0 0 0 0 0 0 0 0 0 0 0
0 0 0 0 0 0 0 0 0 0 0 0 0 0 0 0 0 0 0 0 0 0 0 0 0 0 0 0 0 0 0 0 0 0 0 0 0 0 0 0 0 0 0
0 0 0 0 0 0 0 0 0 0 0 0 0 0 0 0 0 0 0 0 0 0 0 0 0 0 0 0 0 0 0 0 0 0 0 0 0 0 0 0 0 0 0
0 0 0 0 0 0 0 0 0 0 0 0 0 0 0 0 0 0 0 0 0 0 0 0 0 0 0 0 0 0 0 0 0 0 0 0 0 0 0 0 0 0 0
0 0 0 0 0 0 0 0 0 0 0 0 0 0 0 0 0 0 0 0 0 0 0 0 0 0 0 0 0 0 0 0 0 0 0 0 0 0 0 0 0 0 0
0 0 0 0 0 0 0 0 0 0 0 0 0 0 0 0 0 0 0 0 0 0 0 0 0 0 0 0 0 0 0 0 0 0 0 0 0 0 0 0 0 0 0
0 0 0 0 0 0 0 0 0 0 0 0 0 0 0 0 0 0 0 0 0 0 0 0 0 0 0 0 0 0 0 0 0 0 0 0 0 0 0 0 0 0 0
0 0 0 0 0 0 0 0 0 0 0 0 0 0 0 0 0 0 0 0 0 0 0 0 0 0 0 0 0 0 0 0 0 0 0 0 0 0 0 0 0 0 0
0 0 0 0 0 0 0 0 0 0 0 0 0 0 0 0 0 0 0 0 0 0 0 0 0 0 0 0 0 0 0 0 0 0 0 0 0 0 0 0 0 0 0
Wind_Speed
5 4 5 6 6 5 5 5 4 3 2 1 1 1 1 1 1 1 2 2 2 2 1 1 2 1 1 1 1 0 0 1 0 1 1 2 1 1 1 1 0 0 1
4 5 5 6 6 7 6 5 5 4 3 2 2 1 1 1 1 2 2 2 2 2 2 1 2 1 1 1 1 0 0 1 0 1 1 1 3 2 1 0 0 1 1
8 7 7 7 6 7 8 7 6 5 4 3 2 1 1 2 2 2 2 2 3 3 2 2 2 2 1 1 1 1 1 1 1 1 2 2 2 1 2 1 1 1 0
7 7 7 7 8 8 6 6 6 5 4 4 2 2 2 1 2 2 2 3 3 3 2 2 2 1 1 1 2 1 1 1 1 0 0 1 2 2 0 2 2 1 1
7 8 9 9 8 7 6 6 5 5 4 4 4 3 2 2 1 1 2 3 3 3 3 2 2 1 1 2 1 1 1 1 1 1 1 1 1 1 2 0 2 2 1
6 6 6 5 5 5 5 5 5 5 4 4 4 4 4 3 2 2 2 2 2 3 3 2 2 1 1 1 1 1 1 2 2 1 1 1 1 1 2 1 0 1 1
5 6 7 7 7 7 7 6 6 5 5 5 5 5 4 4 4 3 2 2 2 2 3 2 2 2 2 1 1 1 1 2 2 2 1 1 1 1 2 2 1 0 1
4 6 7 7 7 8 7 7 7 6 5 5 5 4 4 3 3 3 3 3 2 3 3 3 2 2 2 1 0 0 1 1 1 2 2 1 1 1 2 2 2 1 1
4 5 5 6 7 8 8 9 8 7 6 6 5 4 4 3 3 3 3 2 3 3 3 2 2 2 2 1 0 0 1 0 1 1 2 1 1 1 1 1 2 3 2
5 4 3 4 5 6 6 6 7 7 6 6 5 4 4 4 3 2 3 3 3 2 2 2 2 2 2 1 0 0 0 1 0 1 1 1 1 1 1 1 1 2 3
5 4 3 2 2 3 4 5 5 5 5 6 5 4 4 4 3 3 3 3 2 2 2 2 1 1 1 1 0 1 1 1 0 1 1 1 1 1 1 1 1 1 2
4 4 3 2 1 2 3 4 5 6 6 6 5 5 4 3 3 4 3 3 2 2 2 1 1 1 1 1 0 1 1 1 1 1 1 1 1 1 1 1 2 1 2
6 6 5 3 3 2 3 4 5 6 5 5 5 5 4 5 5 5 4 3 3 2 2 1 2 2 1 1 1 1 1 1 2 1 2 1 2 1 1 2 1 1 1
6 6 5 4 4 3 3 3 5 5 5 5 6 6 7 6 6 5 4 3 3 2 2 2 2 2 2 1 1 1 1 1 1 1 1 2 2 3 2 2 2 2 2
9 8 6 5 5 4 4 3 4 4 5 6 7 8 7 6 5 5 4 4 3 3 3 2 2 2 1 2 2 1 1 1 0 0 0 1 3 4 3 2 2 3 2
10 9 8 7 6 5 5 4 4 3 4 6 8 7 5 6 6 6 5 4 4 3 3 3 2 2 2 3 4 3 2 1 1 1 1 1 1 1 2 3 4 5 4
10 10 9 7 6 6 5 5 4 3 3 5 6 6 6 6 7 6 5 5 5 4 4 4 3 3 4 5 4 5 3 2 1 1 1 0 0 1 1 1 2 2 3
10 10 10 9 7 6 5 4 3 2 3 4 5 5 6 7 6 6 7 7 5 5 5 5 4 4 5 6 5 5 3 2 2 2 2 1 1 1 2 2 2 1 1
7 7 7 7 7 7 6 5 4 3 3 4 5 6 6 7 7 8 8 7 6 6 5 4 5 5 6 7 7 6 3 2 2 2 2 2 2 2 4 4 3 1 1
7 7 8 7 8 7 6 5 5 4 5 6 6 6 6 7 8 9 8 6 6 7 6 5 5 6 6 7 8 8 3 3 2 1 1 3 3 3 4 4 3 2 1
7 7 7 7 7 7 5 5 5 6 7 7 6 5 6 7 8 7 6 6 6 6 6 6 5 6 7 8 9 10 5 5 4 3 2 2 3 4 4 4 3 4 3
7 7 7 7 7 6 5 6 7 8 7 6 6 6 6 6 6 6 6 6 7 7 6 6 5 5 5 7 8 11 10 8 5 4 3 3 4 4 4 3 4 6 6
7 7 7 8 8 6 5 7 9 8 8 7 7 7 6 6 5 5 6 5 6 6 6 6 6 5 4 5 10 10 11 11 6 4 6 5 5 5 3 4 6 5 4
7 7 7 8 9 8 7 7 8 8 7 8 8 7 6 6 5 5 5 5 6 7 7 7 7 6 5 5 5 5 6 8 6 4 5 7 6 5 5 5 3 3 3
7 6 7 8 9 9 8 8 8 8 8 8 8 7 6 6 5 6 6 7 8 9 9 8 8 8 8 10 13 9 7 6 6 6 4 3 3 3 2 3 3 2 3
7 7 8 8 9 9 9 8 7 7 8 8 8 6 5 5 5 5 5 7 8 10 13 11 10 9 11 12 16 15 14 13 15 8 5 4 4 5 4 4 3 2 2
Wind_Direction
222 189 179 164 155 159 165 173 171 169 146 124 124 123 280 303 319 309 312 320 320 324 314 309 314 321 301 282 276 255 316 316 295 49 357 337 327 338 297 256 154 223 246
200 190 177 173 175 176 179 181 185 180 180 173 169 181 199 255 268 294 313 318 322 319 309 297 292 291 288 307 308 250 146 320 57 123 98 358 350 348 356 353 76 291 260
203 197 189 189 184 188 190 190 193 191 187 167 120 78 44 11 352 330 314 316 319 314 307 295 281 280 259 267 273 235 171 209 294 120 143 151 205 310 345 1 3 349 328
204 198 195 195 198 200 191 190 190 190 187 171 164 166 174 216 248 265 283 305 313 314 311 305 289 277 261 257 261 222 194 167 205 293 72 159 167 148 11 345 350 2 343
205 205 203 204 202 191 185 188 186 192 188 181 181 179 192 221 262 288 297 309 315 315 313 313 305 290 270 259 255 229 195 183 176 178 167 108 70 105 143 132 342 354 339
212 213 208 198 195 185 183 182 187 200 192 188 190 191 199 213 249 285 294 304 310 310 315 318 313 295 277 266 254 228 199 197 183 178 167 159 154 171 150 161 201 331 324
210 208 203 199 196 192 191 187 190 204 197 193 202 204 207 206 220 242 254 275 294 299 305 315 307 298 285 276 248 211 205 196 188 190 195 190 189 167 153 147 157 136 327
231 224 215 207 203 201 195 190 196 205 196 198 209 209 210 207 223 232 232 242 253 267 281 292 296 300 302 295 234 225 237 193 195 201 187 185 202 171 164 160 146 124 21
271 248 233 216 209 204 200 196 197 202 200 202 203 207 211 212 224 235 233 242 254 265 275 290 303 309 314 311 176 204 246 182 188 190 184 179 198 182 182 165 157 152 153
315 291 261 236 221 211 206 197 197 202 202 198 201 203 209 215 220 226 240 251 262 269 284 299 309 318 327 325 161 171 214 162 196 186 164 167 183 180 168 166 166 160 155
323 317 304 279 244 219 203 202 204 204 202 202 202 204 209 213 214 223 237 243 254 263 267 275 294 303 314 316 245 219 192 158 185 176 167 186 177 166 168 160 151 152 148
333 337 340 347 318 243 223 214 210 209 210 203 200 207 208 205 211 226 237 235 245 257 255 263 280 283 287 287 234 236 195 180 190 194 167 191 166 163 170 162 159 161 162
2 1 2 356 329 293 255 235 222 218 212 199 199 208 209 207 216 225 229 229 234 249 259 251 256 263 271 265 243 208 197 199 207 201 186 195 166 175 172 160 158 163 151
6 4 353 338 321 304 279 255 242 223 208 200 203 210 213 212 216 220 219 220 220 226 239 244 250 252 255 248 234 187 175 177 200 197 190 194 193 194 183 173 174 156 134
1 352 341 332 327 325 311 287 267 240 213 203 211 220 218 212 212 216 217 216 216 223 224 229 254 257 241 226 204 191 170 160 149 356 223 214 205 199 189 179 176 157 145
351 345 338 334 329 320 314 302 288 263 220 214 222 224 216 212 213 215 212 210 218 224 218 220 230 243 240 226 198 175 170 170 175 221 277 286 281 202 185 182 176 174 170
343 342 335 324 313 307 301 294 286 284 237 230 232 224 215 218 220 215 208 211 215 212 217 224 219 231 244 234 210 186 165 174 191 210 234 286 22 133 121 117 117 156 181
344 339 336 330 321 313 312 305 303 296 258 244 243 232 219 223 221 211 214 217 209 206 213 220 218 223 240 231 214 192 170 175 197 207 207 208 250 191 152 123 96 74 58
328 325 324 325 328 330 327 325 317 306 292 266 254 242 225 225 220 217 220 215 205 209 210 211 209 215 238 233 215 189 163 181 207 215 210 202 214 216 162 136 133 105 47
333 334 334 338 342 337 336 331 320 310 291 281 268 259 235 226 226 224 221 212 206 212 208 212 210 211 224 230 216 192 170 183 201 210 228 223 206 204 171 155 152 159 187
330 335 339 340 332 329 334 326 319 301 289 291 282 266 248 238 234 228 219 208 205 205 208 213 215 214 220 227 219 198 181 188 188 196 211 225 205 182 169 160 168 182 157
334 335 337 333 330 330 329 320 308 301 304 298 285 271 257 247 243 226 220 209 200 201 209 212 221 222 221 218 220 206 197 188 181 195 200 200 179 161 154 159 161 151 132
328 328 327 326 328 326 322 309 305 312 313 307 293 280 271 254 243 227 219 208 202 205 209 207 217 223 215 218 217 208 198 189 182 188 181 171 154 141 130 129 138 134 128
320 321 325 325 322 320 311 302 306 311 310 305 300 290 278 267 251 238 224 213 207 210 211 211 215 215 207 207 204 199 192 185 178 169 154 139 126 117 113 104 106 112 133
309 312 313 310 310 312 308 308 313 315 311 306 301 296 281 268 255 242 234 227 223 212 209 213 207 201 211 213 195 183 184 179 172 146 127 125 129 128 115 100 93 96 112
308 308 306 305 306 309 307 306 307 310 310 309 306 297 288 278 262 252 263 254 247 239 229 219 208 215 213 197 190 189 185 174 162 148 158 168 168 167 164 154 139 124 128